Find Starlink 38046

NORAD ID: 69746 Int'l Des: 2026-150 Owner: SPXS Country: US Constellation: starlink operational
LEOCIRCULARRETROGRADE

当前视图

正在加载3D地球...

About Starlink 38046

Starlink 38046 (NORAD 69746) is a starlink constellation satellite (v2 mini) launched Jul 2, 2026 by SPXS of US. It operates in LEO, CIRCULAR, RETROGRADE orbit with a mass of 575.00 kg.

即将过境

Passes for default location (London). Set your location on the main map for personalized predictions.

高度历史

Loading altitude history...

两行轨道根数

1 69746U 26150H 26234.54746382 .00015687 00000-0 48733-3 0 9997
2 69746 97.2852 73.9593 0001722 88.2323 271.9117 15.33438493 9304
Epoch: Aug 22, 2026 • Age: 40 hours

当前状态

高度 467.7 km
远地点 / 近地点 N/A
速度 7.63 km/s
星下点 11.51°N, 150.76°W
发射日期 Jul 2, 2026
运行时间 0.1 years
类型 internet

技术详情

分类 Payload
质量 575.00 kg
干质量 530.00 kg
总质量 575.00 kg
长度 0.30 m
直径 4.10 m
跨度 29.00 m
形状 Box + pan
制造商 SPXS
平台类型 Starlink V2MO
阶段状态 In Orbit
所有者/国家 SPXS/US

Most Searched